Location: Unspecified
(34.4950°S, 58.5160°W)
Time: 23:37:08
(UTC+00:00)

Cosmos 1486 Rocket - Pass Details

Date: 19 April 2026
Orbit: 755 x 778 km, 74.1° (Epoch: 16 May)

Event Time Altitude Azimuth Distance (km) Brightness Sun altitude
Exits shadow 08:23:08 54° 333° (NNW) 946 4.2 -24.8°
Maximum altitude 08:24:23 83° 254° (WSW) 795 3.9 -24.6°
Drops below altitude 10° 08:29:46 10° 165° (SSE) 2,358 6.7 -23.5°
Sets 08:32:11 0° 163° (SSE) 3,293 7.5 -23.0°
